When you browse on this site, cookies collect data to enhance your experience and personalize the content and advertising you see.
Visit our Privacy Policy to learn more. By continuing to use the site, you agree to this use of cookies and data.
  • In Latvia
  • List of Countries
  • For 7 days
  • Water Temperature
  • Satellite Maps
  • Weather Map
  • Weather Widgets
  • user-avatar
    Login

    Hourly Weather Melbourne

    Today, 18 February, Monday

    Time Temperature Precipitation Wind Pressure Humidity
    00:00 +26°C° 0 mm 3 mps 754 mmHg 44%
    01:00 +25°C° 0 mm 3 mps 754 mmHg 44%
    02:00 +25°C° 0 mm 2 mps 753 mmHg 46%
    03:00 +24°C° 0 mm 1 mps 753 mmHg 48%
    04:00 +25°C° 0 mm 3 mps 752 mmHg 43%
    05:00 +25°C° 0.1 mm 3 mps 752 mmHg 44%
    06:00 +25°C° 0.1 mm 2 mps 753 mmHg 46%
    07:00 +25°C° 0.1 mm 2 mps 753 mmHg 48%
    08:00 +26°C° 0.1 mm 2 mps 753 mmHg 48%
    09:00 +27°C° 0.1 mm 3 mps 753 mmHg 47%
    10:00 +24°C° 0 mm 2 mps 754 mmHg 68%
    11:00 +26°C° 0.1 mm 3 mps 754 mmHg 57%
    12:00 +29°C° 0.1 mm 3 mps 753 mmHg 47%
    13:00 +31°C° 0.1 mm 3 mps 753 mmHg 36%
    14:00 +29°C° 0 mm 4 mps 753 mmHg 42%
    15:00 +27°C° 0 mm 5 mps 753 mmHg 49%
    16:00 +22°C° 0 mm 5 mps 753 mmHg 60%
    17:00 +22°C° 0 mm 5 mps 753 mmHg 59%
    18:00 +22°C° 0 mm 4 mps 754 mmHg 57%
    19:00 +21°C° 0 mm 4 mps 754 mmHg 56%
    20:00 +20°C° 0 mm 4 mps 755 mmHg 58%
    21:00 +19°C° 0 mm 4 mps 755 mmHg 59%
    22:00 +19°C° 0 mm 4 mps 756 mmHg 61%
    23:00 +18°C° 0 mm 4 mps 756 mmHg 62%

    Tomorrow, 19 February, Tuesday

    Time Temperature Precipitation Wind Pressure Humidity
    00:00 +17°C° 0 mm 3 mps 756 mmHg 64%
    01:00 +17°C° 0 mm 3 mps 757 mmHg 65%
    02:00 +16°C° 0 mm 3 mps 757 mmHg 66%
    03:00 +16°C° 0 mm 3 mps 757 mmHg 67%
    04:00 +14°C° 0 mm 3 mps 757 mmHg 68%
    05:00 +14°C° 0 mm 3 mps 757 mmHg 68%
    06:00 +14°C° 0 mm 3 mps 757 mmHg 69%
    07:00 +14°C° 0 mm 3 mps 758 mmHg 69%
    08:00 +17°C° 0 mm 3 mps 758 mmHg 63%
    09:00 +18°C° 0 mm 3 mps 758 mmHg 57%
    10:00 +19°C° 0 mm 3 mps 758 mmHg 52%
    11:00 +20°C° 0 mm 3 mps 758 mmHg 49%
    12:00 +20°C° 0 mm 3 mps 758 mmHg 47%
    13:00 +21°C° 0 mm 3 mps 758 mmHg 45%
    14:00 +21°C° 0 mm 3 mps 757 mmHg 44%
    15:00 +21°C° 0 mm 3 mps 757 mmHg 43%
    16:00 +22°C° 0 mm 3 mps 757 mmHg 43%
    17:00 +21°C° 0 mm 3 mps 757 mmHg 46%
    18:00 +20°C° 0 mm 3 mps 758 mmHg 50%
    19:00 +19°C° 0 mm 3 mps 758 mmHg 54%
    20:00 +18°C° 0 mm 3 mps 759 mmHg 58%
    21:00 +17°C° 0 mm 3 mps 759 mmHg 63%
    22:00 +16°C° 0 mm 2 mps 760 mmHg 68%
    23:00 +16°C° 0 mm 2 mps 760 mmHg 69%

    Day after tomorrow, 20 February, Wednesday

    Time Temperature Precipitation Wind Pressure Humidity
    00:00 +15°C° 0 mm 1 mps 760 mmHg 71%
    01:00 +15°C° 0 mm 1 mps 760 mmHg 73%
    02:00 +15°C° 0 mm 1 mps 760 mmHg 74%
    03:00 +14°C° 0 mm 2 mps 760 mmHg 74%
    04:00 +14°C° 0 mm 2 mps 760 mmHg 75%
    05:00 +14°C° 0 mm 2 mps 760 mmHg 75%
    06:00 +14°C° 0 mm 2 mps 760 mmHg 74%
    07:00 +15°C° 0 mm 2 mps 760 mmHg 74%
    08:00 +16°C° 0 mm 2 mps 760 mmHg 68%
    09:00 +18°C° 0 mm 2 mps 760 mmHg 61%
    10:00 +19°C° 0 mm 2 mps 760 mmHg 54%
    11:00 +20°C° 0 mm 3 mps 760 mmHg 50%
    12:00 +22°C° 0 mm 3 mps 759 mmHg 45%
    13:00 +24°C° 0 mm 3 mps 759 mmHg 41%
    14:00 +24°C° 0 mm 3 mps 759 mmHg 42%
    15:00 +23°C° 0 mm 4 mps 759 mmHg 42%
    16:00 +23°C° 0 mm 4 mps 758 mmHg 43%
    17:00 +22°C° 0 mm 4 mps 759 mmHg 48%
    18:00 +21°C° 0 mm 4 mps 759 mmHg 52%
    19:00 +20°C° 0 mm 3 mps 760 mmHg 57%
    20:00 +19°C° 0 mm 3 mps 760 mmHg 61%
    21:00 +18°C° 0 mm 3 mps 761 mmHg 64%
    22:00 +18°C° 0 mm 2 mps 761 mmHg 68%
    23:00 +17°C° 0 mm 2 mps 761 mmHg 71%

    21 February, Thursday

    Time Temperature Precipitation Wind Pressure Humidity
    00:00 +17°C° 0 mm 2 mps 761 mmHg 74%
    01:00 +16°C° 0 mm 2 mps 761 mmHg 77%
    02:00 +16°C° 0.1 mm 2 mps 761 mmHg 79%
    03:00 +16°C° 0.1 mm 2 mps 761 mmHg 82%
    04:00 +16°C° 0.1 mm 3 mps 761 mmHg 85%
    05:00 +16°C° 0.1 mm 3 mps 762 mmHg 83%
    06:00 +16°C° 0.1 mm 3 mps 762 mmHg 81%
    07:00 +16°C° 0.1 mm 3 mps 762 mmHg 79%
    08:00 +17°C° 0 mm 3 mps 763 mmHg 72%
    09:00 +17°C° 0 mm 3 mps 763 mmHg 66%
    10:00 +18°C° 0 mm 3 mps 763 mmHg 60%
    11:00 +19°C° 0 mm 3 mps 763 mmHg 55%
    12:00 +20°C° 0 mm 4 mps 763 mmHg 50%
    13:00 +21°C° 0 mm 4 mps 763 mmHg 46%
    14:00 +21°C° 0 mm 4 mps 762 mmHg 45%
    15:00 +21°C° 0 mm 5 mps 762 mmHg 45%
    16:00 +22°C° 0 mm 5 mps 762 mmHg 45%
    17:00 +20°C° 0 mm 5 mps 762 mmHg 49%
    18:00 +19°C° 0 mm 5 mps 763 mmHg 52%
    19:00 +18°C° 0 mm 4 mps 763 mmHg 56%
    20:00 +17°C° 0 mm 4 mps 764 mmHg 60%
    21:00 +17°C° 0 mm 4 mps 764 mmHg 63%
    22:00 +15°C° 0 mm 4 mps 765 mmHg 67%
    23:00 +16°C° 0 mm 3 mps 764 mmHg 69%

    22 February, Friday

    Time Temperature Precipitation Wind Pressure Humidity
    00:00 +14°C° 0 mm 3 mps 764 mmHg 72%
    01:00 +14°C° 0 mm 3 mps 764 mmHg 74%
    02:00 +13°C° 0 mm 3 mps 764 mmHg 76%
    03:00 +13°C° 0 mm 3 mps 764 mmHg 78%
    04:00 +13°C° 0 mm 3 mps 764 mmHg 80%
    05:00 +13°C° 0 mm 3 mps 765 mmHg 80%
    06:00 +13°C° 0 mm 3 mps 765 mmHg 79%
    07:00 +14°C° 0 mm 2 mps 765 mmHg 78%
    08:00 +16°C° 0 mm 3 mps 765 mmHg 68%
    09:00 +18°C° 0 mm 3 mps 765 mmHg 58%
    10:00 +21°C° 0 mm 3 mps 765 mmHg 48%
    11:00 +22°C° 0 mm 3 mps 765 mmHg 44%
    12:00 +23°C° 0 mm 4 mps 765 mmHg 40%
    13:00 +26°C° 0 mm 4 mps 764 mmHg 36%
    14:00 +26°C° 0 mm 5 mps 764 mmHg 38%
    15:00 +26°C° 0 mm 5 mps 764 mmHg 40%
    16:00 +26°C° 0 mm 5 mps 764 mmHg 42%
    17:00 +23°C° 0 mm 5 mps 764 mmHg 48%
    18:00 +21°C° 0 mm 5 mps 765 mmHg 55%
    19:00 +20°C° 0 mm 5 mps 765 mmHg 61%
    20:00 +19°C° 0 mm 4 mps 766 mmHg 65%
    21:00 +18°C° 0 mm 4 mps 766 mmHg 70%
    22:00 +17°C° 0 mm 4 mps 767 mmHg 74%
    23:00 +17°C° 0 mm 3 mps 766 mmHg 77%

    23 February, Saturday

    Time Temperature Precipitation Wind Pressure Humidity
    00:00 +16°C° 0 mm 3 mps 766 mmHg 80%
    01:00 +14°C° 0 mm 3 mps 766 mmHg 82%
    02:00 +14°C° 0 mm 3 mps 766 mmHg 85%
    03:00 +14°C° 0 mm 3 mps 766 mmHg 87%
    04:00 +13°C° 0 mm 3 mps 766 mmHg 89%
    05:00 +14°C° 0 mm 2 mps 766 mmHg 88%
    06:00 +15°C° 0 mm 2 mps 767 mmHg 88%
    07:00 +15°C° 0 mm 2 mps 767 mmHg 87%
    08:00 +17°C° 0 mm 2 mps 767 mmHg 76%
    09:00 +20°C° 0 mm 2 mps 767 mmHg 64%
    10:00 +23°C° 0 mm 2 mps 767 mmHg 52%
    11:00 +25°C° 0 mm 3 mps 767 mmHg 45%
    12:00 +27°C° 0 mm 3 mps 766 mmHg 39%
    13:00 +28°C° 0 mm 4 mps 766 mmHg 32%
    14:00 +28°C° 0 mm 4 mps 766 mmHg 34%
    15:00 +28°C° 0 mm 5 mps 766 mmHg 36%
    16:00 +28°C° 0 mm 5 mps 765 mmHg 38%
    17:00 +27°C° 0 mm 5 mps 766 mmHg 43%
    18:00 +25°C° 0 mm 5 mps 766 mmHg 49%
    19:00 +23°C° 0 mm 4 mps 766 mmHg 54%
    20:00 +22°C° 0 mm 4 mps 767 mmHg 57%
    21:00 +21°C° 0 mm 3 mps 767 mmHg 59%
    22:00 +20°C° 0 mm 3 mps 768 mmHg 62%
    23:00 +19°C° 0 mm 2 mps 767 mmHg 64%
    Show more